Regional Weather Roundup
Issued by NWS

Home | Current Version | Previous Version | Text Only | Print | Product List | Glossary Off
Versions: 1 2 3 4 5 6 7 8 9 10 11 12 13 14 15 16 17 18 19 20 21 22 23 24 25 26 27 28 29 30 31 32 33 34 35 36 37 38 39 40 41 42 43 44 45 46 47 48 49 50

000
ASUS43 KDMX 300107
RWRIA

WEATHER ROUNDUP FOR IOWA
NATIONAL WEATHER SERVICE DES MOINES IA
800 PM CDT FRI MAY 29 2015

NOTE: "FAIR" INDICATES FEW OR NO CLOUDS BELOW 12,000 FEET WITH NO
SIGNIFICANT WEATHER AND/OR OBSTRUCTIONS TO VISIBILITY.

* - THESE STATIONS ARE NOT NWS STATIONS...THUS NOT UNDER NWS
QUALITY CONTROL.  THEY ALSO DO NOT REPORT WEATHER SUCH
AS PRECIPITATION OR FOG.

IAZ001>003-012>014-020>022-031>034-043>046-300200-
   NORTHWEST IOWA

CITY           SKY/WX    TMP DP  RH WIND       PRES   REMARKS
CARROLL *      CLOUDY    64  64 100 N15G22    29.92R
CHEROKEE *     CLOUDY    55  54  94 N17G26    29.99R
DENISON *      CLOUDY    63  63 100 N17G24    29.93R
LE MARS *      CLOUDY    55  52  88 N14G23    30.05R
ORANGE CITY *  CLOUDY    52  48  87 N14G25    30.03R
SHELDON *      CLOUDY    52  50  93 N23G32    30.02R
SIOUX CITY     CLOUDY    57  51  80 N24G33    30.02R
SPENCER        CLOUDY    54  50  86 N26G35    29.99R
STORM LAKE *   CLOUDY    55  54  94 N21G30    29.98R
$$

IAZ055>058-069>071-079>083-090>094-300200-
   SOUTHWEST IOWA

CITY           SKY/WX    TMP DP  RH WIND       PRES   REMARKS
ATLANTIC *     CLEAR     72  64  78 SW6       29.90R
AUDUBON *      CLEAR     70  64  83 CALM      29.91R
CLARINDA *     CLEAR     72  66  83 S9        29.91S
COUNCIL BLFS * MOCLDY    68  68 100 NW15G23   29.93R
CRESTON *      CLEAR     70  64  83 S12       29.91F
HARLAN  *      LGT RAIN  66  66 100 N20G29    29.95R
LAMONI         MOCLDY    71  63  75 S9        29.94R
RED OAK *      CLEAR     73  63  68 SW7       29.90R
SHENANDOAH *   CLEAR     75  63  64 SW8       29.91R
$$

IAZ047>049-059>061-072>074-084-300200-
   CENTRAL IOWA

CITY           SKY/WX    TMP DP  RH WIND       PRES   REMARKS
AMES           MOCLDY    73  63  70 SW9       29.89R
ANKENY *       CLEAR     73  66  78 SW8       29.89R
CHARITON *     MOCLDY    70  64  83 S9G16     29.94R
DES MOINES     MOCLDY    74  63  68 SW8       29.89R
GRINNELL*      CLOUDY    70  64  83 S10       29.91S
KNOXVILLE *    CLOUDY    70  64  83 S7        29.91R
MARSHALLTOWN   CLOUDY    72  64  76 S10       29.88S
PELLA *        CLOUDY    70  66  88 S8        29.93R
PERRY *        MOCLDY    73  63  68 SW8       29.89S
$$

IAZ004>006-015-016-023>025-035-036-300200-
   NORTH CENTRAL IOWA

CITY           SKY/WX    TMP DP  RH WIND       PRES   REMARKS
ALGONA *       CLOUDY    61  61 100 NW17G26   29.94R
CLARION *      LGT RAIN  66  64  94 NW6       29.91R
ESTHERVILLE    CLOUDY    55  54  96 N24G31    29.97S
FORT DODGE *   CLOUDY    64  61  88 N12       29.93R
MASON CITY     LGT RAIN  67  65  93 N5        29.90S
FOREST CITY *  MOCLDY    64  64 100 NW9       29.90R
IOWA FALLS *     N/A     72  64  78 SW9       29.90R
$$

IAZ007>011-017>019-026>030-037>042-050>054-066-300200-
   NORTHEAST IOWA

CITY           SKY/WX    TMP DP  RH WIND       PRES   REMARKS
CEDAR RAPIDS   CLOUDY    71  64  78 SW9       29.90S
CHARLES CITY * PTCLDY    68  68 100 S6        29.89R
CLINTON *      CLOUDY    72  64  78 W10       29.94R
DECORAH *      PTCLDY    68  66  94 CALM      29.88R
DUBUQUE        CLOUDY    71  64  78 SW10      29.90R
MONTICELLO *   CLOUDY    73  68  83 SW7G14    29.90S
OELWEIN *      CLEAR     70  68  94 SW8       29.89S
WATERLOO       CLOUDY    73  64  73 SW8       29.87R
$$

IAZ064-065-067-068-078-300200-
   EAST CENTRAL IOWA

CITY           SKY/WX    TMP DP  RH WIND       PRES   REMARKS
DAVENPORT      CLOUDY    75  63  66 NW7       29.92R
IOWA CITY      CLOUDY    73  65  75 SW8       29.93R
MT. PLEASANT * LGT RAIN  72  63  73 W5        29.95R
MUSCATINE *    PTCLDY    72  63  73 W6        29.93R
QUAD CITIES    CLOUDY    74  64  71 W5        29.91R
$$

IAZ062-063-075>077-085>089-095>099-300200-
   SOUTHEAST IOWA

CITY           SKY/WX    TMP DP  RH WIND       PRES   REMARKS
BURLINGTON     CLOUDY    73  65  75 SW6       29.94R
FAIRFIELD *    CLOUDY    72  63  73 W9        29.95R
FORT MADISON * PTCLDY    73  64  73 SW5       29.96R
KEOKUK *       CLEAR     72  66  83 SW5       29.94R
OSKALOOSA *    CLOUDY    68  63  83 SW9       29.94S
CENTERVILLE *  PTCLDY    68  68 100 SW5       29.97R
OTTUMWA        CLOUDY    68  64  87 S7        29.94R
WASHINGTON *   MOCLDY    73  64  73 W9        29.95R
$$

ABBREVIATIONS USED IN REMARKS
   TC - TEMPERATURES IN CELSIUS
  WCI - WIND CHILL INDEX
   HX - HEAT INDEX
  VSB - VISIBILITY
$$



USA.gov is the U.S. government's official web portal to all federal, state and local government web resources and services.